Location: College Park
(38.9810°N, 76.9370°W)
Time: 03:24:52
(UTC-05:00)

Tiangong 1 - Pass Details

Date: 13 February 2018
Orbit: 246 x 267 km, 42.8° (Epoch: 24 February)

Event Time Altitude Azimuth Distance (km) Brightness Sun altitude
Exits shadow 06:03:48 21° 319° (NW) 658 1.8 -11.8°
Maximum altitude 06:04:45 29° 2° (N) 514 1.6 -11.6°
Drops below altitude 10° 06:06:50 10° 66° (ENE) 1,042 4.2 -11.2°
Sets 06:08:53 0° 79° (E) 1,861 6.1 -10.8°
